This is the latest recevied weather packets stored in our database for station/object IK6IHU-3. If no packets are shown the sender has not sent any weather packets the latest 1 day(s).
| Time | Temp. | Humidity | Pressure | Rain* | Wind** | Luminosity | Snow |
|---|---|---|---|---|---|---|---|
| 1778029224 | 15.56° C | 71% | 1012.4 hPa | 0 mm | 1.34 m/s, 309° | 0 W/m² | - |
| 1778029165 | 15.56° C | 72% | 1012.3 hPa | 0 mm | 1.34 m/s, 307° | 0 W/m² | - |
| 1778029104 | 15.56° C | 72% | 1012.5 hPa | 0 mm | 1.34 m/s, 304° | 0 W/m² | - |
| 1778029044 | 15.56° C | 72% | 1012.4 hPa | 0 mm | 1.34 m/s, 300° | 0 W/m² | - |
| 1778028984 | 15.56° C | 72% | 1012.2 hPa | 0 mm | 1.34 m/s, 295° | 0 W/m² | - |
| 1778028924 | 15.56° C | 71% | 1012.3 hPa | 0 mm | 0.89 m/s, 291° | 0 W/m² | - |
| 1778028864 | 15.56° C | 71% | 1012.3 hPa | 0 mm | 0.89 m/s, 290° | 0 W/m² | - |
| 1778028804 | 15.56° C | 71% | 1012.3 hPa | 0 mm | 0.45 m/s, 290° | 0 W/m² | - |
| 1778028744 | 15.56° C | 71% | 1012.3 hPa | 0 mm | 0 m/s | 0 W/m² | - |
| 1778028684 | 15.56° C | 71% | 1012.4 hPa | 0 mm | 0 m/s | 0 W/m² | - |
| 1778028624 | 15.56° C | 70% | 1012.3 hPa | 0 mm | 0 m/s | 0 W/m² | - |
| 1778028564 | 15.56° C | 70% | 1012.2 hPa | 0 mm | 0 m/s | 0 W/m² | - |
| 1778028504 | 15.56° C | 70% | 1012.5 hPa | 0 mm | 0 m/s | 0 W/m² | - |
| 1778028444 | 15.56° C | 70% | 1012.5 hPa | 0 mm | 0 m/s | 0 W/m² | - |
| 1778028384 | 15.56° C | 70% | 1012.4 hPa | 0 mm | 0.89 m/s, 295° | 0 W/m² | - |
| 1778028324 | 15.56° C | 70% | 1012.5 hPa | 0 mm | 0.89 m/s, 295° | 0 W/m² | - |
| 1778028264 | 15.56° C | 71% | 1012.4 hPa | 0 mm | 0.89 m/s, 295° | 0 W/m² | - |
| 1778028204 | 15.56° C | 71% | 1012.4 hPa | 0 mm | 0.89 m/s, 295° | 0 W/m² | - |
| 1778028144 | 15° C | 71% | 1012.3 hPa | 0 mm | 0.89 m/s, 292° | 0 W/m² | - |
| 1778028084 | 15° C | 71% | 1012.3 hPa | 0 mm | 1.34 m/s, 292° | 0 W/m² | - |
| 1778028024 | 15° C | 72% | 1012.6 hPa | 0 mm | 0.89 m/s, 292° | 0 W/m² | - |
| 1778027964 | 15° C | 72% | 1012.4 hPa | 0 mm | 0.89 m/s, 292° | 0 W/m² | - |
| 1778027904 | 15° C | 72% | 1012.4 hPa | 0 mm | 0.45 m/s, 292° | 0 W/m² | - |
| 1778027844 | 15° C | 72% | 1012.4 hPa | 0 mm | 0.89 m/s, 292° | 0 W/m² | - |
| 1778027784 | 15° C | 72% | 1012.6 hPa | 0 mm | 0.89 m/s, 292° | 0 W/m² | - |
* Rain latest hour (hover to see other rain measurements)
** Current wind speed in m/s (hover to see current wind gust speed)